Weather in Gashun

Russia / Republic of Kalmykia     46°12′31″N   45°05′28″E
temp.,
°C
wind,
m/s
gust,
m/s
humid.,
%
clouds,
%
prec.,
mm/h
press.,
hPa
HPBL,
m
14 august, sun
sun1400:00+26e33335 0.0 101020
03:00+25e47342 0.0 1010100
06:00+26ene513330 0.0 1010341
09:00+33ese682564 0.0 1009813
12:00+38e9111614 0.0 10072886
15:00+39ese12121359 0.0 10063440
18:00+36ese9111599 0.0 10071980
21:00+30ese512243 0.0 1008289
15 august, mon
mon1500:00+27e4123124 0.0 1008263
03:00+26e41235100 0.0 1008271
06:00+27e7153090 0.0 1008451
09:00+34ese10132499 0.0 1008930
12:00+39ese1113134 0.0 10073217
15:00+40ese12131312 0.0 10063214
18:00+37ese10111697 0.0 10072025
21:00+31ese714240 0.0 1009435
16 august, tue
tue1600:00+28e514270 0.0 1009335
03:00+27e616300 0.0 1009430
06:00+28e716310 0.0 1010540
09:00+35ese1014190 0.0 10101239
12:00+40ese1113130 0.0 10082919
15:00+41ese1112120 0.0 10073276
18:00+37ese1013160 0.0 10081868
21:00+32ese916270 0.0 1009622
17 august, wed
wed1700:00+29ese816310 0.0 1009581
03:00+28se716360 0.3 1009512
06:00+27se514410 0.2 1009476
09:00+34se79250 0.2 10081047
12:00+39se78150 0.0 10071959
15:00+41se77120 0.0 10052388
18:00+38se99200 0.0 10051428
21:00+31se915350 0.0 1006537
18 august, thu
thu1800:00+29se81439100 0.0 1006537
03:00+28se714385 0.0 1006606
06:00+28se81438100 0.0 1007728
09:00+34sse1112281 0.0 10071266
12:00+38se12131771 0.0 10062190
15:00+37se11131699 0.1 10062282
18:00+33se1113233 0.0 10061237
21:00+27ese7142740 0.0 1008601